Location: ???? ???????
(44.5545°N, 135.2030°E)
Time: 11:50:41
(UTC+00:00)

Daily predictions for brighter satellites

Satellite Brightness Start Highest point End
(mag) Time Altitude Azimuth Time Altitude Azimuth Time Altitude Azimuth
Cosmos 192 4.2 12:04:56 72° ESE 12:04:56 72° ESE 12:09:47 10° NNE
Cosmos 494 Rocket 4.2 12:00:24 10° NNW 12:05:32 65° WSW 12:06:48 48° SSW
YAOGAN 11 4.4 12:02:16 10° N 12:06:27 62° WNW 12:07:45 40° SW
Cosmos 2341 Rocket 4.2 12:02:51 15° SSW 12:08:03 71° W 12:14:21 10° N
Cosmos 1048 Rocket 3.9 12:03:43 10° NNW 12:08:50 68° ENE 12:09:04 66° E
Cosmos 1733 Rocket 3.4 12:13:57 57° NNE 12:13:57 57° NNE 12:17:29 10° N
Lacrosse 5 rocket 2.7 12:11:08 10° W 12:13:40 28° NW 12:13:40 28° NW
Okean-O 3.1 12:13:58 50° SW 12:14:27 53° W 12:18:45 10° NNW
Cosmos 2237 Rocket 2.6 12:19:03 48° ENE 12:19:03 48° ENE 12:23:29 10° NNE
Cosmos 1980 3.8 12:19:29 56° ENE 12:19:29 56° ENE 12:24:17 10° NNE
Cosmos 2322 4.4 12:15:54 10° SW 12:21:29 54° WNW 12:27:06 10° NNE
Terra 3.8 12:21:13 15° SW 12:23:46 24° W 12:27:32 10° NW
Aureole 3 3.9 12:22:11 10° N 12:25:43 65° N 12:25:43 65° N
Cosmos 2292 Rocket 4.4 12:25:03 10° N 12:29:49 51° NE 12:29:49 51° NE
BREEZE-M DEB (TANK) 4.1 12:32:03 52° ESE 12:32:03 52° ESE 12:46:35 10° NE
USA 238 DEB 4.0 12:25:59 10° NW 12:33:24 70° NE 12:35:08 55° ESE
USA 238 4.0 12:26:09 10° NW 12:33:34 69° NE 12:35:18 55° ESE
Meteor 2-21 Rocket 4.3 12:27:32 10° N 12:33:41 79° E 12:34:00 76° ESE
ASTEX 1 3.6 12:34:16 65° W 12:34:16 65° W 12:39:06 10° NNW
Okean O Rocket 3.1 12:37:47 28° WSW 12:38:12 29° W 12:42:00 10° NW
SPOT 3 Rocket 3.7 12:39:26 69° W 12:39:26 69° W 12:44:35 10° NNW
Cosmos 2242 Rocket 4.4 12:35:40 10° NNW 12:39:28 50° WNW 12:39:28 50° WNW
NOSS 0 Rocket 4.2 12:38:51 17° SW 12:43:41 65° WNW 12:49:55 10° NNE
Cosmos 1727 Rocket 3.9 12:37:53 10° N 12:44:16 82° W 12:44:51 74° SSW
Cosmos 1025 Rocket 4.4 12:43:23 10° N 12:45:47 33° N 12:45:47 33° N
COSMOS 2428 4.1 12:45:51 10° WSW 12:51:08 37° NW 12:56:28 10° NNE
Cosmos 2369 Rocket 3.8 12:47:53 10° N 12:52:10 24° NE 12:52:10 24° NE
Cosmos 2278 Rocket 2.7 12:55:21 10° NW 13:00:29 51° W 13:00:29 51° W
Ariane Rocket 3.8 13:06:32 45° WNW 13:06:32 45° WNW 13:10:39 10° NNW
NOSS 3-4 (A) 3.7 13:14:09 54° NNW 13:14:09 54° NNW 13:19:10 10° NNE
NOSS 3-4 (C) 3.7 13:14:41 54° NNW 13:14:41 54° NNW 13:19:42 10° NNE
USA 59 Rocket 2.6 13:14:36 10° NNW 13:15:10 15° NNW 13:15:10 15° NNW
Cosmos 1934 Rocket 4.2 13:21:25 69° N 13:21:25 69° N 13:26:54 10° N
Cosmos 2123 Rocket 4.1 13:14:50 10° N 13:20:25 70° NW 13:20:25 70° NW
Cosmos 1656 Rocket 4.4 13:19:48 10° NNW 13:23:40 47° N 13:23:40 47° N
SL-16 R/B 3.9 13:29:03 23° NE 13:29:03 23° NE 13:31:13 10° NNE
Cosmos 1943 Rocket 3.8 13:22:49 10° NW 13:26:57 25° W 13:26:57 25° W
SeaSat 1 3.9 13:41:28 33° NW 13:41:28 33° NW 13:44:12 10° NNW
Cosmos 2237 Rocket 4.0 14:00:45 23° WNW 14:02:19 26° NW 14:07:03 10° N
COSMOS 2455 4.5 14:04:44 10° NNW 14:09:42 26° NE 14:09:46 26° NE
Cosmos 2369 Rocket 3.8 14:31:16 10° NNW 14:33:56 28° NW 14:33:56 28° NW
ACS3 Solar Sail 3.7 14:59:54 10° NE 15:02:36 18° ENE 15:02:36 18° ENE
SL-16 R/B 4.0 15:10:51 25° NW 15:10:51 25° NW 15:14:51 10° N
CZ-2C R/B 4.2 15:17:06 34° N 15:17:06 34° N 15:20:07 10° NNW
USA 281 4.1 15:33:52 41° ENE 15:34:19 42° NE 15:40:25 10° NNW
SJ 16-02 4.3 15:30:30 10° NNW 15:30:52 12° NNW 15:30:52 12° NNW
USA 234 4.0 15:39:54 10° E 15:46:07 48° NNE 15:52:20 10° NW
Cosmos 1833 Rocket 4.3 15:58:07 27° ENE 15:58:07 27° ENE 16:01:09 10° NE
COSMOS 2455 4.4 15:50:11 10° NW 15:52:52 28° NW 15:52:52 28° NW
IDEFIX/ARIANE 42P 4.5 15:51:53 10° NE 15:54:31 23° ENE 15:54:31 23° ENE
CZ-2D R/B 4.2 16:33:55 10° NE 16:37:16 17° E 16:38:06 16° ESE
Cosmos 1697 Rocket 3.3 16:33:28 10° NNW 16:38:16 53° NNE 16:38:16 53° NNE
ACS3 Solar Sail 2.1 16:41:09 10° N 16:46:10 58° NNW 16:46:10 58° NNW
Cosmos 2098 Rocket 4.1 16:50:54 55° NNE 16:50:54 55° NNE 16:55:18 10° N
USA 267 3.3 16:46:21 10° NE 16:52:50 65° NNW 16:53:27 62° WNW
Cosmos 1980 Rocket 3.5 16:49:08 10° NNW 16:54:24 37° NE 16:59:39 10° ESE
ADEOS Rocket 3.8 16:49:11 10° NNE 16:56:23 61° E 16:58:03 50° SSE
CZ-4C R/B 4.0 17:06:21 14° ESE 17:06:21 14° ESE 17:08:28 10° ENE
ATLAS 3B R/B 3.8 16:59:38 10° NNW 17:07:12 49° NE 17:14:21 10° ESE
USA 229 DEB 4.4 17:01:11 10° NNW 17:08:36 61° NE 17:16:46 10° SE
USA 229 4.4 17:01:14 10° NNW 17:08:40 61° NE 17:16:50 10° SE
ATLAS 2AS CENTAUR R/B 2.5 17:10:15 78° SW 17:10:45 87° NW 17:17:39 10° NE
BREEZE-M DEB (TANK) 3.5 17:13:02 50° WNW 17:14:21 72° N 17:20:06 10° E
Cosmos 2082 Rocket 3.4 17:14:12 30° SE 17:15:15 33° ESE 17:20:17 10° NE
Meteor 2-10 4.1 17:12:17 10° N 17:17:16 77° NNE 17:17:16 77° NNE
USA 281 4.0 17:20:43 35° WNW 17:20:43 35° WNW 17:24:59 10° NW
MSX 4.0 17:13:46 10° N 17:19:02 57° NW 17:19:02 57° NW
Envisat 3.6 17:16:27 10° NNE 17:21:22 49° E 17:21:47 48° ESE
Gbstr 26 Del rocket 4.3 17:27:10 31° NNE 17:27:10 31° NNE 17:29:37 10° NE
USA 234 3.1 17:22:28 10° SE 17:28:58 67° SW 17:35:30 10° NW
H-2A R/B 3.2 17:27:36 10° NNE 17:32:14 36° E 17:33:56 29° SE
ADEOS II 3.2 17:29:21 10° NNE 17:34:16 39° E 17:36:06 29° SE
CZ-3 R/B 4.4 17:28:35 31° SSW 17:34:58 35° S 17:45:07 10° ESE
IDEFIX/ARIANE 42P 3.4 17:31:04 10° N 17:35:13 37° NW 17:35:13 37° NW
H-2A R/B 3.3 17:38:27 42° NNE 17:38:27 42° NNE 17:41:09 10° N
Resurs 1-4 Rocket 2.3 17:32:41 10° NNE 17:37:59 64° ESE 17:38:59 53° SSE
SL-8 R/B 4.2 17:38:10 49° NNW 17:38:49 53° N 17:43:27 10° E
SL-16 R/B 4.5 17:33:49 10° ESE 17:38:58 28° ENE 17:44:08 10° N
Cosmos 2279 Rocket 4.2 17:37:25 39° SSE 17:39:44 65° E 17:45:54 10° NNE
Cosmos 1833 Rocket 3.5 17:39:47 37° WNW 17:39:56 37° NW 17:45:07 10° NNE
Cosmos 1076 Rocket 4.5 17:38:00 10° NNW 17:40:48 39° NNW 17:40:48 39° NNW
Cosmos 2034 Rocket 4.3 17:44:08 47° W 17:44:31 48° WNW 17:50:38 10° N
Cosmos-2242 3.1 17:45:09 70° NE 17:45:09 70° NE 17:48:58 10° N
Cosmos 1452 Rocket 4.0 17:46:51 45° WNW 17:46:51 45° WNW 17:51:47 10° N
SL-4 R/B 2.9 17:48:54 41° N 17:48:54 41° N 17:52:12 10° NE
Cosmos 2058 Rocket 3.0 17:51:03 83° ESE 17:51:07 84° E 17:55:36 10° N
NOAA 11 4.2 17:47:28 10° N 17:52:48 61° WNW 17:53:21 58° W
FENGYUN 3A 4.4 17:51:53 10° N 17:56:49 37° WNW 17:57:01 37° WNW
Cosmos 2221 4.1 17:55:45 20° SE 17:57:49 31° E 18:01:28 10° NNE
ALOS 2.1 17:53:39 10° NNE 17:58:13 84° ESE 17:58:49 67° S
COSMOS 2406 4.4 17:57:36 19° SSE 18:01:01 37° ESE 18:06:15 10° NE
Cosmos 2266 Rocket 4.4 18:06:19 10° N 18:12:28 62° E 18:18:28 10° SSE
Cosmos 1092 Rocket 4.3 18:07:48 10° NNW 18:13:31 42° W 18:14:28 39° WSW
SL-24 R/B 4.4 18:09:26 10° N 18:14:28 80° W 18:16:47 35° SSW
Cosmos 909 Rocket 4.0 18:13:03 38° SW 18:15:42 82° WNW 18:22:02 10° NNE
Meteor 2-2 Rocket 4.2 18:15:08 42° SW 18:16:59 65° WNW 18:22:36 10° N
CZ-2D R/B 2.1 18:12:31 10° N 18:17:41 66° WNW 18:19:22 42° SW
KORONAS-FOTON 3.5 18:21:42 66° NW 18:21:42 66° NW 18:24:44 10° N
Cosmos 1697 Rocket 4.4 18:18:19 10° NW 18:19:55 16° WNW 18:19:55 16° WNW
Cosmos 1707 3.7 18:25:17 24° NNW 18:25:17 24° NNW 18:26:46 10° N
Cosmos 2369 3.6 18:19:49 10° NNW 18:25:33 87° WSW 18:31:15 10° SSE
Cosmos 2333 Rocket 3.7 18:21:34 10° NNW 18:26:50 38° NE 18:32:04 10° ESE
Cosmos 1607 4.4 18:23:53 22° S 18:27:49 55° ESE 18:33:51 10° NE
ACS3 Solar Sail 3.7 18:26:15 10° NNW 18:28:26 12° NW 18:29:44 11° WNW
Cosmos 1536 2.8 18:24:53 10° NNW 18:28:06 48° WNW 18:28:06 48° WNW
Cosmos 1812 Rocket 4.1 18:27:29 17° S 18:30:38 57° E 18:34:52 10° NNE
Cosmos 1766 4.4 18:28:33 10° NNW 18:30:03 23° NW 18:30:03 23° NW
BREEZE-M DEB (TANK) 4.0 18:30:22 22° W 18:33:00 37° NNW 18:35:35 10° NE
Cosmos 1470 2.6 18:29:42 10° N 18:33:04 69° E 18:35:25 18° SSE
USA 267 4.5 18:29:25 10° NE 18:35:10 34° NNW 18:40:47 11° WNW
Cosmos 1867 4.3 18:35:28 28° W 18:37:38 40° NW 18:42:47 10° NNE
Cosmos 1980 Rocket 2.7 18:33:11 10° NW 18:38:21 37° WSW 18:41:24 21° SSW
BREEZE-M DEB (TANK) 4.0 18:26:30 10° WNW 18:39:47 61° N 18:43:32 10° E
ARGOS 3.4 18:34:43 10° NNE 18:40:08 69° ESE 18:45:29 10° S
ADEOS Rocket 4.3 18:35:16 10° N 18:41:26 32° WNW 18:44:59 22° WSW
ARIANE 6 FM1 Upper Stage 2.5 18:38:41 10° NW 18:42:36 57° SW 18:46:29 10° SSE
Cosmos 546 4.4 18:42:38 24° WNW 18:44:45 83° SSW 18:48:29 10° ESE
CZ-4C R/B 1.7 18:51:15 29° WSW 18:53:20 64° NW 18:58:32 10° NNE
USA 276 2.3 18:54:45 35° ENE 18:54:45 35° ENE 18:55:59 10° ENE
Meteor 2-6 Rocket 4.5 18:51:32 22° SW 18:54:54 49° WNW 19:00:29 10° N
Iridium 4 Rocket 3.1 18:52:59 19° SSW 18:55:55 59° W 19:00:23 10° N
CRYOSAT 2 4.3 18:51:06 10° S 18:55:59 90° SSE 19:00:53 10° N
CZ-2C R/B 3.5 18:52:01 10° NNE 18:56:50 45° E 19:01:28 10° S
ATLAS 3B R/B 3.1 18:50:43 10° NW 18:58:00 47° WSW 19:04:51 10° S
Cosmos 2082 Rocket 2.8 18:56:01 22° WSW 18:59:11 41° WNW 19:04:36 10° NNE
USA 229 DEB 4.5 18:52:26 10° NW 18:59:24 38° WSW 19:06:54 10° S
Cosmos 220 Rocket 4.0 18:56:08 15° S 18:59:27 72° ESE 19:03:27 10° NNE
USA 229 4.5 18:52:28 10° NW 18:59:29 39° WSW 19:07:00 10° S
Envisat 4.3 18:56:03 10° NNW 18:59:59 23° WNW 19:01:55 18° W
Cosmos 2278 4.3 18:55:51 10° NNW 19:01:32 62° ENE 19:07:10 10° SE
ATLAS 2AS CENTAUR R/B 4.0 18:57:39 13° W 19:02:34 27° NNW 19:08:13 10° NNE
Cosmos 2360 Rocket 3.5 19:00:35 10° NNW 19:06:02 45° ENE 19:11:26 10° SE
Meteor 2-9 Rocket 4.2 19:01:42 10° NNW 19:06:58 55° W 19:12:07 10° S
Cosmos 540 Rocket 4.1 19:05:42 10° S 19:10:41 56° ESE 19:15:43 10° NNE
H-2A R/B 3.0 19:07:07 10° N 19:11:25 30° WNW 19:14:26 17° WSW
Cosmos 2237 4.5 19:06:15 10° NW 19:11:41 45° WSW 19:17:05 10° S
USA 234 4.4 19:08:42 10° SSW 19:12:46 17° WSW 19:16:51 10° W
Gbstr 26 Del rocket 4.4 19:09:46 10° NW 19:12:59 27° N 19:16:19 10° ENE
ADEOS II 3.0 19:09:09 10° N 19:13:39 30° WNW 19:16:56 16° WSW
Cosmos 2322 Rocket 3.0 19:08:27 10° NNW 19:13:59 55° ENE 19:19:31 10° SE
Meteor 1-28 Rocket 3.6 19:11:58 10° SSE 19:15:09 54° ENE 19:18:23 10° N
BREEZE-M DEB (TANK) 4.2 19:12:12 10° WNW 19:15:18 54° NNE 19:25:01 10° E
Cosmos 1939 Rocket 4.3 19:12:32 10° NNE 19:15:51 33° E 19:19:09 10° SSE
Resurs 1-4 Rocket 3.6 19:13:29 10° NNW 19:17:14 20° WNW 19:20:02 13° W
Cosmos 2084 4.3 19:16:20 17° WSW 19:19:00 35° NW 19:22:49 10° NNE
PAYLOAD A 4.4 19:14:45 10° NNE 19:19:35 61° ESE 19:24:14 10° S
Cosmos 1655 Rocket 4.0 19:13:28 10° N 19:19:45 82° W 19:25:57 10° S
Cosmos 1842 4.5 19:19:58 16° W 19:20:38 17° WNW 19:22:47 10° NNW
Meteor 2-4 Rocket 4.1 19:15:47 10° S 19:21:12 64° E 19:26:33 10° NNE
SL-8 R/B 3.6 19:16:38 10° WNW 19:21:22 87° SSW 19:26:07 10° ESE
SL-16 R/B 2.1 19:16:21 10° NNW 19:22:01 76° WSW 19:27:40 10° SSE
SL-16 R/B 2.6 19:16:03 10° S 19:22:09 56° WSW 19:28:19 10° NNW
Cosmos 1503 Rocket 4.0 19:17:23 10° NNW 19:22:42 87° WSW 19:27:55 10° SSE
SL-4 R/B 3.5 19:23:15 10° WNW 19:26:36 27° N 19:29:51 10° ENE
H-2A R/B 2.4 19:23:38 10° N 19:27:32 42° WNW 19:31:20 10° SW
SL-08 RB Rocket 3.7 19:25:47 10° N 19:30:08 61° WNW 19:34:28 10° SSW
Cosmos 1271 Rocket 3.5 19:29:12 13° SW 19:31:44 28° WNW 19:34:47 10° NNW
Cosmos 1975 3.7 19:29:02 10° NW 19:31:59 24° W 19:34:56 10° SW
Meteor 1-11 Rocket 4.0 19:26:54 10° NNW 19:32:40 53° W 19:38:20 10° S
ALOS 4.2 19:32:38 10° NW 19:34:28 12° WNW 19:36:18 10° W
Cosmos 2221 3.7 19:32:03 12° WSW 19:34:52 22° WNW 19:38:08 10° NNW
Cosmos 1486 Rocket 4.3 19:34:08 10° NW 19:39:00 42° WSW 19:43:52 10° S
Cosmos 1766 Rocket 3.5 19:35:15 10° NNW 19:39:38 74° W 19:43:57 10° S
Cosmos 2219 Rocket 3.2 19:36:59 10° NNW 19:42:30 53° ENE 19:47:59 10° SE
BREEZE-M DEB (TANK) 3.7 19:39:28 10° WNW 19:43:24 88° SSW 19:57:18 10° ESE
Cosmos 990 Rocket 3.9 19:39:08 10° NNW 19:44:17 84° WSW 19:49:24 10° SSE
COSMOS 2406 3.9 19:39:57 10° WSW 19:45:15 37° NW 19:50:36 10° NNE
Cosmos 44 Rocket 4.0 19:42:11 10° WSW 19:46:59 44° NW 19:51:55 10° NNE
Cosmos 1066 Rocket 4.4 19:44:08 10° S 19:49:35 78° E 19:54:59 10° NNE
SJ-11-01 4.3 19:44:58 10° NNE 19:49:40 90° WSW 19:54:18 10° SSW
Cosmos 1763 Rocket 3.7 19:47:06 10° SW 19:52:13 58° WNW 19:57:26 10° NNE
BREEZE-M DEB (TANK) 4.1 19:47:14 10° WSW 20:06:26 75° NNW 20:10:32 10° ENE
